Location: Baia Mare
(47.6567°N, 23.5850°E)
Time: 23:35:58
(UTC+03:00)

ISS - Pass Details

Date: 21 September 2019
Orbit: 411 x 421 km, 51.6° (Epoch: 19 September)

Event Time Altitude Azimuth Distance (km) Brightness Sun altitude
Rises 19:59:49 0° 207° (SSW) 2,332 0.3 -6.4°
Reaches altitude 10° 20:02:12 10° 191° (S) 1,473 -0.9 -6.8°
Maximum altitude 20:04:46 21° 139° (SE) 981 -2.3 -7.3°
Drops below altitude 10° 20:07:21 10° 88° (E) 1,480 -1.6 -7.7°
Enters shadow 20:07:22 10° 88° (E) 1,484 -1.6 -7.7°
